星链-35941(STARLINK-35941)

导读

STARLINK-35941是美国SpaceX公司星链(Starlink)项目的低轨互联网通信卫星,于2025年11月21日成功发射。作为星链星座的组成部分,该卫星运行于近地轨道,旨在为全球提供高速宽带互联网服务,尤其覆盖偏远地区与网络基础设施薄弱区域,进一步扩充了星链星座的网络覆盖能力与服务容量,支撑全球天地一体化网络布局。

Basic Information
目录编号:
66583
目录名称:
STARLINK-35941
国际标识:
2025-268AC
轨道中心:
EARTH
卫星名称:
星链-35941
卫星全名:
星链-35941(STARLINK-35941)
卫星状态:
在轨 (已飞行287 天)
发射日期:
2025-11-21 UTC
国别 :
美国 (US)
星等 :
--
Orbit Information
数据来源 国际轨道数据
星历时间: 2026-09-03T21:00:07+0800
20小时前
查看轨道信息
半长轴: 6861.106km
偏心率: 0.0001388
轨道倾角: 43.004°
近地点辐角 268.135°
升交点赤经 62.320°
平近点角 91.935°
近地点: 482.016km
远地点: 483.922km
周期: 94.265分钟
每日圈数: 15.27607
Detailed Information
固有亮度:
5
最大亮度:
2.5
卫星平台:
Starlink V1.0
覆盖范围:
全球
运营商:
太空探索技术公司
运营商所在国:
美国
制造商(研发单位):
太空探索技术公司
制造商所在国:
美国
使用方式:
暂无
Satellite Introduction
Starlink 计划是 SpaceX 推出的全球卫星互联网项目,通过发射低轨道卫星,为全球尤其是偏远地区提供高速、低延迟的互联网服务。自 2019 年起,Starlink 已部署数千颗卫星,旨在缩小全球数字鸿沟,推动互联网普及。该项目还为军事、航空等行业提供通信支持,带来广泛经济效益。
2D Orbit Map
3D Orbit Map
Orbit Altitude Analysis Chart
Orbit Inclination Analysis Chart
Orbit Comprehensive Analysis Chart
View Comprehensive Chart
Conjunction Data List
Event ID Objects TCA Miss Dist (km) Collision Risk Probability Collision Risk Index (CRI) Action
CDM_260905-192606-249406-658321
2026-09-05T
19:26:06+0000
0.268 km
中距离
3.787596E-4 高风险 0.87
CDM_260905-130405-885506-658321
2026-09-05T
13:04:47+0000
0.544 km
远距离
1.137589E-4 高风险 0.76
CDM_260906-132806-249406-658321
2026-09-06T
13:28:49+0000
0.597 km
远距离
6.704953E-5 中风险 0.72
CDM_260905-210006-249406-658321
2026-09-05T
21:00:15+0000
0.723 km
远距离
3.754424E-5 中风险 0.66
CDM_260906-150206-249406-658321
2026-09-06T
15:02:58+0000
0.735 km
远距离
3.574639E-5 中风险 0.66
CDM_260904-230605-993806-658321
2026-09-04T
23:06:32+0000
0.666 km
远距离
2.159517E-5 中风险 0.62
CDM_260905-175106-249406-658321
2026-09-05T
17:51:57+0000
1.199 km
极远距离
6.821183E-6 低风险 0.52
CDM_260905-143805-885506-658321
2026-09-05T
14:38:57+0000
1.584 km
极远距离
3.684819E-6 低风险 0.46
CDM_260904-235305-993806-658321
2026-09-04T
23:53:37+0000
1.155 km
极远距离
3.403918E-6 低风险 0.46
CDM_260906-115406-249406-658321
2026-09-06T
11:54:40+0000
1.549 km
极远距离
2.963127E-6 低风险 0.44